Waarnemingen

Advertentie
Mijn weer
F3, Nederland (6239): temperatuur & dauwpunt: 17.10.2017 18:00:00 - 23.10.2017 18:00:00 (CEST)F3, Nederland (6239): windsnelheid & windstoten: 17.10.2017 18:00:00 - 23.10.2017 18:00:00 (CEST)F3, Nederland (6239): luchtdruk: 17.10.2017 18:00:00 - 23.10.2017 18:00:00 (CEST)F3, Nederland (6239): zicht: 17.10.2017 18:00:00 - 23.10.2017 18:00:00 (CEST)
Datum & Tijd tt [°C] td [°C] ff [km/u] ff [kn] fx [km/u] fx [kn] ppp [hPa] vv [km]
23.10.2017 18:00:00 14,1 10,3 11 6 14 8 1016,2 10
23.10.2017 17:00:00 14,3 10,5 5 3 - - 1015,9 10
23.10.2017 16:00:00 13,9 10,3 2 1 7 4 1015,7 10
23.10.2017 15:00:00 13,7 10,4 5 3 7 4 1015,1 10
23.10.2017 14:00:00 13,6 10,3 8 4 - - 1014,8 10
23.10.2017 13:00:00 13,7 10,2 11 6 18 10 1014,4 10
23.10.2017 12:00:00 13,8 10,6 15 8 18 10 1013,7 10
23.10.2017 11:00:00 14,0 10,1 15 8 - - 1013,0 10
23.10.2017 10:00:00 13,9 10,2 21 11 25 14 1012,0 10
23.10.2017 09:00:00 13,9 10,8 22 12 29 16 1011,2 10
23.10.2017 08:00:00 13,9 11,1 16 9 - - 1009,9 10
23.10.2017 07:00:00 13,7 11,6 21 11 32 18 1008,7 10
23.10.2017 06:00:00 13,3 11,7 21 11 32 18 1007,3 10
23.10.2017 05:00:00 13,5 12,0 24 13 32 18 1005,8 10
23.10.2017 04:00:00 13,1 12,6 34 18 47 25 1003,9 4,9
23.10.2017 03:00:00 13,2 12,2 46 25 50 27 1004,2 10
23.10.2017 02:00:00 12,3 12,1 46 25 50 27 1004,7 3,6
23.10.2017 01:00:00 12,7 12,0 50 27 54 29 1005,0 9
23.10.2017 00:00:00 12,4 11,8 44 24 47 25 1005,1 10
22.10.2017 23:00:00 12,2 11,4 46 25 47 25 1005,0 10
22.10.2017 22:00:00 12,7 11,6 46 25 47 25 1004,9 10
22.10.2017 21:00:00 12,7 11,2 39 21 43 23 1004,7 10
22.10.2017 20:00:00 12,7 10,6 39 21 36 19 1004,6 10
22.10.2017 19:00:00 12,9 10,8 39 21 40 21 1004,1 10
22.10.2017 18:00:00 12,6 10,5 34 18 40 21 1003,6 10
22.10.2017 17:00:00 12,2 10,9 31 17 40 21 1003,4 10
22.10.2017 16:00:00 12,7 9,5 34 18 43 23 1002,9 10
22.10.2017 15:00:00 12,7 9,4 41 22 43 23 1002,3 10
22.10.2017 14:00:00 12,6 9,5 39 21 40 21 1002,0 10
22.10.2017 13:00:00 12,4 9,6 39 21 43 23 1001,8 10
22.10.2017 12:00:00 12,5 9,4 41 22 43 23 1001,6 10
22.10.2017 11:00:00 12,9 8,4 39 21 47 25 1001,0 10
22.10.2017 10:00:00 12,5 9,5 44 24 50 27 1000,7 10
22.10.2017 09:00:00 13,1 8,8 42 23 - - 1000,1 10
22.10.2017 08:00:00 13,4 10,0 39 21 54 29 999,2 10
22.10.2017 07:00:00 13,6 10,9 48 26 47 25 999,0 10
22.10.2017 06:00:00 13,7 10,7 42 23 47 25 998,7 10
22.10.2017 05:00:00 13,1 11,3 39 21 54 29 998,6 10
22.10.2017 04:00:00 13,6 10,7 39 21 47 25 998,7 9
22.10.2017 03:00:00 13,4 9,7 50 27 58 31 999,1 10
22.10.2017 02:00:00 13,9 9,7 50 27 58 31 999,3 10
22.10.2017 01:00:00 13,6 10,2 61 33 79 43 999,8 4,3
22.10.2017 00:00:00 14,0 10,1 63 34 61 33 1000,2 10
21.10.2017 23:00:00 14,7 9,7 54 29 61 33 1000,4 10
21.10.2017 22:00:00 14,7 9,7 54 29 65 35 1000,6 10
21.10.2017 21:00:00 14,6 10,4 63 34 68 37 1000,9 5
21.10.2017 20:00:00 14,5 10,5 57 31 65 35 1001,3 5
21.10.2017 19:00:00 14,0 10,1 52 28 61 33 1002,0 10
21.10.2017 18:00:00 15,1 10,8 52 28 58 31 1002,1 10
21.10.2017 17:00:00 15,4 10,8 50 27 54 29 1002,4 10
21.10.2017 16:00:00 15,4 11,3 52 28 50 27 1002,7 10
21.10.2017 15:00:00 15,1 11,6 48 26 54 29 1002,2 10
21.10.2017 14:00:00 15,2 12,8 42 23 54 29 1002,4 10
21.10.2017 13:00:00 14,2 13,3 52 28 61 33 1002,2 9
21.10.2017 12:00:00 12,8 12,2 65 35 61 33 1002,6 1,7
21.10.2017 11:00:00 12,9 12,0 61 33 61 33 1003,2 2,1
21.10.2017 10:00:00 13,5 11,2 57 31 61 33 1003,8 5
21.10.2017 09:00:00 14,1 11,9 54 29 50 27 1003,8 10
21.10.2017 08:00:00 13,9 9,8 42 23 - - 1004,6 10
21.10.2017 07:00:00 13,7 8,8 31 17 32 18 1005,4 10
21.10.2017 06:00:00 13,7 9,7 35 19 36 19 1005,9 10
21.10.2017 05:00:00 13,8 10,7 29 16 - - 1005,9 10
21.10.2017 04:00:00 14,0 10,9 26 14 32 18 1006,0 10
21.10.2017 03:00:00 13,9 11,2 22 12 32 18 1005,9 10
21.10.2017 02:00:00 14,0 10,3 37 20 - - 1005,9 10
21.10.2017 01:00:00 14,0 12,1 39 21 36 19 1005,7 10
21.10.2017 00:00:00 13,9 12,2 29 16 29 16 1005,2 10
20.10.2017 23:00:00 13,9 12,0 24 13 - - 1004,8 10
20.10.2017 22:00:00 13,9 11,9 24 13 25 14 1004,5 10
20.10.2017 21:00:00 14,2 12,3 18 10 22 12 1004,0 10
20.10.2017 20:00:00 14,1 12,5 15 8 22 12 1003,4 7
20.10.2017 19:00:00 14,2 12,3 26 14 36 19 1003,0 10
20.10.2017 18:00:00 14,0 12,4 35 19 40 21 1002,4 9
20.10.2017 17:00:00 14,2 11,8 41 22 40 21 1002,5 10
20.10.2017 16:00:00 14,3 11,8 37 20 40 21 1002,4 10
20.10.2017 15:00:00 14,0 11,6 34 18 32 18 1002,6 10
20.10.2017 14:00:00 12,9 11,5 31 17 47 25 1002,9 8
20.10.2017 13:00:00 14,3 12,1 31 17 32 18 1002,6 10
20.10.2017 12:00:00 14,0 10,6 26 14 32 18 1002,6 10
20.10.2017 11:00:00 14,2 12,1 28 15 47 25 1002,5 10
20.10.2017 10:00:00 15,7 13,3 42 23 72 39 1001,9 10
20.10.2017 09:00:00 15,7 13,5 41 22 40 21 1001,7 10
20.10.2017 08:00:00 15,9 13,7 44 24 43 23 1002,0 10
20.10.2017 07:00:00 15,8 14,1 44 24 43 23 1002,3 10
20.10.2017 06:00:00 16,0 14,3 42 23 40 21 1002,4 10
20.10.2017 05:00:00 16,1 14,2 41 22 43 23 1002,4 8
20.10.2017 04:00:00 16,0 14,2 44 24 43 23 1003,2 5
20.10.2017 03:00:00 16,0 14,1 39 21 40 21 1003,8 6
20.10.2017 02:00:00 15,9 14,1 42 23 47 25 1004,2 6
20.10.2017 01:00:00 16,1 14,0 44 24 50 27 1004,4 5
20.10.2017 00:00:00 16,1 14,1 46 25 47 25 1004,7 5
19.10.2017 23:00:00 15,8 14,4 52 28 50 27 1005,2 5
19.10.2017 22:00:00 15,8 14,4 50 27 50 27 1005,8 4,5
19.10.2017 21:00:00 15,5 14,4 50 27 50 27 1005,7 3,8
19.10.2017 20:00:00 15,3 14,4 41 22 43 23 1006,5 3,5
19.10.2017 19:00:00 15,0 14,3 39 21 36 19 1006,9 2,9
19.10.2017 18:00:00 15,0 14,2 34 18 32 18 1007,2 3,3
19.10.2017 17:00:00 15,0 14,3 34 18 32 18 1007,7 2,4
19.10.2017 16:00:00 14,8 14,2 31 17 32 18 1008,1 1,9
19.10.2017 15:00:00 14,7 14,2 29 16 29 16 1008,9 1,6
19.10.2017 14:00:00 14,5 14,0 29 16 32 18 1009,4 2,0
19.10.2017 13:00:00 14,5 13,8 35 19 36 19 1009,9 2,1
19.10.2017 12:00:00 14,4 13,7 34 18 36 19 1009,8 1,9
19.10.2017 11:00:00 14,3 13,5 35 19 32 18 1009,9 2,3
19.10.2017 10:00:00 14,4 13,6 37 20 36 19 1009,6 2,2
19.10.2017 09:00:00 14,5 13,4 37 20 36 19 1009,8 4,6
19.10.2017 08:00:00 14,6 13,2 37 20 36 19 1009,5 6
19.10.2017 07:00:00 14,4 13,3 35 19 36 19 1010,2 9
19.10.2017 06:00:00 14,3 13,3 39 21 40 21 1010,4 10
19.10.2017 05:00:00 14,3 12,7 37 20 36 19 1010,8 10
19.10.2017 04:00:00 13,4 12,2 31 17 32 18 1011,4 10
19.10.2017 03:00:00 13,4 12,0 31 17 32 18 1011,9 10
19.10.2017 02:00:00 13,4 11,3 26 14 29 16 1012,4 10
19.10.2017 01:00:00 13,2 10,1 22 12 22 12 1012,6 10
19.10.2017 00:00:00 12,9 10,1 15 8 18 10 1013,2 10
18.10.2017 23:00:00 13,3 9,3 16 9 18 10 1013,5 10
18.10.2017 22:00:00 13,0 9,4 16 9 18 10 1013,5 10
18.10.2017 21:00:00 13,0 9,8 11 6 14 8 1013,7 10
18.10.2017 20:00:00 12,7 10,2 5 3 7 4 1013,7 10
18.10.2017 19:00:00 12,5 10,4 2 1 4 2 1013,6 10
18.10.2017 18:00:00 12,2 10,4 4 2 7 4 1013,6 10
18.10.2017 17:00:00 12,1 10,5 8 4 32 18 1013,8 10
18.10.2017 16:00:00 12,3 10,1 13 7 22 12 1013,8 10
18.10.2017 15:00:00 11,4 10,5 22 12 25 14 1014,0 4,1
18.10.2017 14:00:00 12,3 11,4 13 7 14 8 1014,3 10
18.10.2017 13:00:00 12,6 10,5 9 5 11 6 1014,7 10
18.10.2017 12:00:00 12,5 10,6 8 4 7 4 1014,5 10
18.10.2017 11:00:00 12,5 10,7 9 5 11 6 1014,4 10
18.10.2017 10:00:00 12,5 10,8 13 7 29 16 1014,3 10
18.10.2017 09:00:00 12,4 10,8 16 9 25 14 1014,1 10
18.10.2017 08:00:00 12,8 10,7 16 9 25 14 1013,9 10
18.10.2017 07:00:00 13,2 10,5 26 14 25 14 1013,9 10
18.10.2017 06:00:00 13,3 10,5 28 15 29 16 1014,1 10
18.10.2017 05:00:00 13,3 10,0 28 15 29 16 1014,0 10
18.10.2017 04:00:00 13,2 10,2 31 17 36 19 1013,9 10
18.10.2017 03:00:00 13,3 9,9 41 22 40 21 1014,0 10
18.10.2017 02:00:00 13,2 9,5 41 22 43 23 1013,9 10
18.10.2017 01:00:00 13,5 9,5 48 26 47 25 1014,0 10
18.10.2017 00:00:00 13,6 8,9 52 28 54 29 1013,8 10
17.10.2017 23:00:00 13,8 8,4 57 31 61 33 1013,6 10
17.10.2017 22:00:00 14,0 7,8 65 35 68 37 1013,1 10
17.10.2017 21:00:00 14,1 8,1 63 34 68 37 1013,2 10
17.10.2017 20:00:00 14,2 8,9 65 35 68 37 1013,1 10
17.10.2017 19:00:00 14,0 9,0 67 36 68 37 1012,8 10
17.10.2017 18:00:00 14,0 8,5 68 37 68 37 1012,5 10

tt = temperatuur
td = dauwpunt
ff = windsnelheid
fx = windstoten
ppp = luchtdruk
vv = zicht

Weerstations in de omgeving